Total_Precipitation_Accumulation
0.64 0.41 0.65 0.62 0.55 0.46 0.39 0.40 0.43 0.46 0.41 0.36 0.33 0.32 0.29 0.27 0.25 0.24 0.25 0.22 0.25 0.23 0.25 0.26 0.28 0.35 0.36 0.34 0.39 0.47 0.53 0.43 0.40 0.39 0.32 0.32 0.37 0.34 0.37 0.50 0.87 1.20 0.62
0.36 0.33 0.64 0.64 0.53 0.43 0.37 0.38 0.42 0.42 0.41 0.38 0.34 0.33 0.28 0.24 0.24 0.23 0.22 0.21 0.22 0.21 0.22 0.23 0.27 0.34 0.36 0.36 0.43 0.50 0.50 0.48 0.49 0.50 0.46 0.49 0.46 0.40 0.38 0.44 0.80 1.07 0.67
0.33 0.33 0.48 0.64 0.59 0.53 0.47 0.42 0.41 0.43 0.42 0.37 0.35 0.35 0.30 0.24 0.23 0.23 0.21 0.20 0.20 0.23 0.22 0.23 0.28 0.32 0.38 0.45 0.47 0.48 0.46 0.50 0.54 0.63 0.87 1.27 0.89 0.55 0.48 0.44 0.58 0.62 0.58
0.38 0.38 0.45 0.68 0.67 0.64 0.56 0.50 0.50 0.50 0.48 0.41 0.36 0.34 0.30 0.26 0.25 0.27 0.24 0.22 0.22 0.23 0.26 0.27 0.28 0.33 0.39 0.46 0.48 0.45 0.41 0.48 0.54 0.63 0.93 1.34 1.23 0.86 0.68 0.62 0.68 0.55 0.55
0.36 0.40 0.56 0.77 0.72 0.71 0.64 0.60 0.61 0.58 0.53 0.47 0.40 0.38 0.36 0.34 0.29 0.29 0.28 0.27 0.27 0.28 0.30 0.31 0.32 0.36 0.42 0.42 0.39 0.37 0.39 0.51 0.64 0.58 0.82 1.11 1.44 1.14 0.79 0.81 0.87 0.73 0.61
0.41 0.42 0.57 0.71 0.67 0.68 0.66 0.67 0.70 0.61 0.56 0.50 0.44 0.43 0.44 0.41 0.36 0.35 0.37 0.40 0.38 0.39 0.37 0.38 0.39 0.43 0.44 0.44 0.41 0.40 0.50 0.57 0.56 0.71 0.85 1.10 1.46 1.20 0.90 0.90 0.91 0.99 0.77
0.50 0.43 0.45 0.57 0.59 0.65 0.63 0.60 0.69 0.67 0.65 0.54 0.47 0.45 0.45 0.43 0.44 0.45 0.49 0.51 0.51 0.52 0.48 0.47 0.48 0.44 0.45 0.50 0.46 0.46 0.56 0.56 0.63 0.81 0.82 1.07 1.14 1.07 0.94 0.89 0.96 1.17 1.04
0.61 0.50 0.42 0.50 0.57 0.62 0.63 0.69 0.81 0.81 0.73 0.60 0.50 0.50 0.49 0.51 0.50 0.51 0.52 0.52 0.58 0.64 0.62 0.56 0.54 0.47 0.47 0.52 0.50 0.51 0.61 0.63 0.63 0.70 0.66 0.89 1.12 1.12 0.89 0.87 0.96 1.12 1.20
0.87 0.73 0.58 0.56 0.61 0.71 0.78 0.82 0.94 0.98 0.90 0.73 0.58 0.58 0.58 0.54 0.50 0.49 0.54 0.56 0.58 0.61 0.63 0.61 0.58 0.53 0.52 0.53 0.53 0.55 0.66 0.69 0.66 0.64 0.55 0.86 1.13 1.04 0.85 0.78 0.83 0.98 1.13
0.93 0.88 0.80 0.74 0.75 0.82 0.88 1.02 1.11 1.21 1.31 1.07 0.78 0.69 0.65 0.55 0.50 0.52 0.53 0.56 0.60 0.68 0.68 0.66 0.65 0.61 0.62 0.59 0.54 0.53 0.60 0.56 0.55 0.54 0.61 0.76 1.04 1.06 0.84 0.73 0.73 0.74 0.85
0.68 0.72 0.77 0.80 0.86 0.87 0.82 0.89 1.11 1.29 1.46 1.20 0.83 0.85 0.77 0.55 0.56 0.60 0.60 0.71 0.76 0.81 0.81 0.81 0.82 0.79 0.77 0.69 0.61 0.56 0.46 0.34 0.45 0.53 0.62 0.75 1.01 1.04 0.78 0.64 0.54 0.56 0.59
0.55 0.52 0.54 0.57 0.66 0.73 0.72 0.93 1.18 1.22 1.34 1.09 0.92 0.95 0.92 0.97 0.91 0.70 0.69 0.87 0.98 1.03 0.97 0.95 0.98 0.91 0.78 0.60 0.59 0.53 0.32 0.29 0.41 0.48 0.53 0.76 1.04 1.00 0.78 0.58 0.46 0.48 0.45
0.43 0.40 0.39 0.41 0.44 0.53 0.74 0.98 1.20 1.25 1.29 1.33 1.36 1.22 1.20 1.16 0.96 0.79 0.76 0.80 0.87 0.95 0.89 0.99 0.99 0.84 0.73 0.60 0.55 0.42 0.29 0.32 0.46 0.47 0.58 0.76 0.97 0.94 0.82 0.65 0.49 0.46 0.43
0.46 0.44 0.38 0.30 0.31 0.39 0.53 0.75 1.03 1.10 1.16 1.24 1.24 1.04 1.13 1.13 0.95 0.89 0.97 1.00 0.97 0.95 1.06 1.10 1.06 0.99 0.82 0.64 0.59 0.54 0.46 0.37 0.46 0.53 0.68 0.62 0.85 0.96 0.86 0.75 0.59 0.51 0.46
0.54 0.61 0.59 0.43 0.37 0.39 0.45 0.50 0.64 0.74 0.85 1.13 1.21 0.95 0.93 0.95 0.99 1.02 0.93 1.07 1.13 1.12 1.12 1.11 1.01 0.95 0.92 0.80 0.78 0.76 0.67 0.51 0.51 0.55 0.70 0.56 0.64 0.85 0.92 0.84 0.74 0.61 0.53
0.37 0.49 0.57 0.55 0.54 0.52 0.45 0.40 0.40 0.46 0.59 0.74 0.76 0.72 0.75 0.78 0.88 1.05 0.98 0.97 1.04 1.22 1.27 1.20 1.09 1.09 1.06 0.88 0.83 0.89 0.79 0.68 0.66 0.66 0.76 0.64 0.44 0.47 0.66 0.81 0.82 0.72 0.62
0.27 0.32 0.42 0.50 0.56 0.58 0.59 0.58 0.48 0.47 0.54 0.56 0.56 0.62 0.69 0.69 0.82 0.99 0.95 0.85 0.83 0.99 1.16 1.27 1.29 1.22 1.08 0.96 0.88 0.88 0.79 0.74 0.71 0.83 0.84 0.77 0.57 0.36 0.43 0.62 0.73 0.73 0.71
0.26 0.25 0.31 0.36 0.43 0.53 0.62 0.69 0.66 0.62 0.58 0.52 0.49 0.47 0.50 0.52 0.61 0.80 0.87 0.78 0.78 0.94 1.14 1.29 1.37 1.40 1.25 1.18 1.14 1.00 0.87 0.79 0.75 0.83 0.87 0.88 0.83 0.62 0.54 0.48 0.53 0.60 0.68
0.25 0.23 0.24 0.28 0.33 0.40 0.51 0.58 0.58 0.57 0.54 0.52 0.52 0.41 0.39 0.41 0.53 0.73 0.91 0.94 0.94 1.03 1.14 1.19 1.36 1.40 1.42 1.31 1.21 1.04 0.92 0.88 0.78 0.73 0.85 0.90 0.92 0.84 0.77 0.53 0.40 0.41 0.52
0.25 0.24 0.24 0.26 0.27 0.31 0.36 0.43 0.48 0.46 0.44 0.50 0.49 0.47 0.51 0.58 0.65 0.84 1.06 1.15 1.26 1.27 1.29 1.42 1.68 1.65 1.48 1.41 1.32 1.10 0.90 0.87 0.84 0.80 0.78 0.87 0.97 0.93 0.82 0.69 0.54 0.34 0.36
0.19 0.18 0.19 0.24 0.26 0.25 0.24 0.29 0.34 0.35 0.44 0.51 0.59 0.64 0.69 0.72 0.79 1.00 1.21 1.44 1.56 1.43 1.41 1.58 1.81 1.94 1.74 1.58 1.55 1.38 1.16 0.95 0.87 0.86 0.81 0.89 1.00 1.02 0.95 0.93 0.77 0.62 0.47
0.06 0.09 0.13 0.15 0.18 0.17 0.18 0.23 0.32 0.39 0.45 0.58 0.74 0.85 0.87 0.85 0.90 0.95 1.15 1.35 1.42 1.45 1.47 1.55 1.72 1.99 1.91 1.72 1.76 1.99 1.76 1.44 0.98 0.78 0.85 0.92 1.04 1.05 0.96 0.85 0.84 0.78 0.68
0.04 0.04 0.07 0.12 0.15 0.15 0.23 0.41 0.68 0.92 1.01 1.02 1.04 1.19 1.28 1.24 1.19 1.16 1.19 1.32 1.40 1.52 1.53 1.56 1.59 1.76 1.87 1.81 1.84 2.23 2.05 1.80 1.61 1.09 0.83 0.91 1.04 1.11 1.05 0.99 0.94 0.90 0.79
0.04 0.04 0.05 0.10 0.15 0.19 0.35 0.68 1.07 1.40 1.48 1.49 1.61 1.65 1.71 1.63 1.50 1.47 1.47 1.56 1.50 1.48 1.44 1.45 1.46 1.59 1.84 1.89 1.83 1.77 1.72 1.71 1.93 1.62 1.11 0.95 1.00 1.02 1.06 1.00 0.99 1.02 1.03
0.11 0.12 0.15 0.21 0.34 0.51 0.65 0.83 1.13 1.32 1.44 1.58 1.74 1.88 1.99 2.11 2.08 2.00 1.92 1.77 1.59 1.50 1.50 1.52 1.53 1.58 1.67 1.73 1.71 1.66 1.66 1.59 1.43 1.52 1.44 1.20 1.03 0.94 0.98 1.03 1.04 1.06 1.15
0.24 0.27 0.31 0.41 0.51 0.58 0.70 0.84 0.98 1.07 1.23 1.43 1.58 1.75 1.88 2.00 2.03 1.97 1.84 1.61 1.44 1.37 1.43 1.54 1.56 1.59 1.57 1.60 1.57 1.47 1.47 1.46 1.37 1.44 1.36 1.35 1.35 1.03 0.89 0.91 0.97 0.98 1.00